Probability
0 0 0 0 0 0 0 0 0 0 0 0 0 0 0 0 0 0 0 0 0 0 0 13 23 29 32 19 19 19 23 23 23 19 16 13 16 16 16 13 16 16 19 13 13 10 10 6 6
0 0 0 0 0 0 0 0 0 0 0 0 0 0 0 0 0 0 0 0 0 0 3 13 23 29 32 26 19 23 19 19 23 13 16 10 10 13 10 13 16 16 13 16 16 10 10 6 6
0 0 0 0 0 0 0 0 0 0 0 0 0 0 0 0 0 0 0 0 0 0 6 13 16 26 23 23 23 23 23 23 23 23 13 13 13 13 13 16 16 16 16 13 10 6 6 6 6
0 0 0 0 0 0 0 0 0 0 0 0 0 0 0 0 0 0 0 0 0 0 6 13 19 23 19 19 19 16 16 16 19 23 16 13 10 13 10 10 13 13 10 10 10 6 6 6 6
0 0 0 0 0 0 0 0 0 0 0 0 0 0 0 0 0 0 0 0 0 0 6 13 16 19 19 16 19 16 16 16 19 16 13 13 10 10 10 10 10 13 6 3 3 3 3 6 6
0 0 0 0 0 0 0 0 0 0 0 0 0 0 0 0 0 0 0 0 0 0 3 10 16 16 16 13 13 16 16 16 16 16 16 13 10 10 10 10 10 10 6 3 0 0 3 3 6
0 0 0 0 0 0 0 0 0 0 0 0 0 0 0 0 0 0 0 0 0 3 3 3 13 13 13 13 13 13 16 16 16 16 16 13 10 10 6 6 10 6 3 3 0 3 3 6 6
0 0 0 0 0 0 0 0 0 0 0 0 0 0 0 0 0 0 0 3 3 3 3 3 10 10 13 13 13 13 13 13 13 10 10 10 6 10 10 6 3 3 3 0 0 3 6 3 0
0 0 0 0 0 0 0 0 0 0 0 0 0 0 0 0 0 0 3 3 3 3 3 3 3 6 10 6 10 10 6 6 10 6 6 3 3 3 0 0 0 0 0 0 3 3 0 0 0
0 0 0 0 0 0 0 0 0 0 0 0 0 0 0 0 0 0 3 3 3 3 3 3 3 3 3 3 3 3 3 3 3 3 3 3 3 0 0 0 0 0 0 0 0 0 0 0 0
0 0 0 0 0 0 0 0 0 0 0 0 0 0 0 0 0 0 0 3 3 3 3 3 3 3 3 3 0 0 0 3 3 0 0 0 0 0 0 0 0 0 0 0 0 0 0 0 0
0 0 0 0 0 0 0 0 0 0 0 0 0 0 0 0 0 0 0 0 3 3 3 3 0 3 3 3 0 0 0 0 0 0 0 0 0 0 0 0 0 0 0 0 0 0 0 0 0
0 0 0 0 0 0 0 0 0 0 0 0 0 0 0 0 0 0 0 0 0 3 3 3 0 0 0 0 0 0 0 0 0 0 0 0 0 0 0 0 0 0 0 0 0 0 0 0 0
0 0 0 0 0 0 0 0 0 0 0 0 0 0 0 0 0 0 0 0 0 0 0 0 3 0 0 0 0 0 0 0 0 0 0 0 0 0 0 0 0 0 0 0 0 0 0 0 0
0 0 0 0 0 0 0 0 0 0 0 0 0 0 0 0 0 0 0 0 0 0 0 0 0 0 0 0 0 0 0 0 0 0 0 0 0 0 0 0 0 0 0 0 0 0 0 0 0
0 0 0 0 0 0 0 0 0 0 0 0 0 0 0 0 0 0 0 0 0 0 0 0 0 0 0 0 0 0 0 0 0 0 0 0 0 0 0 0 0 0 0 0 0 0 0 0 0
0 0 0 0 0 0 0 0 0 0 0 0 0 0 0 0 0 0 0 0 0 0 0 0 0 0 0 0 0 0 0 0 0 0 0 0 0 0 0 0 0 0 0 0 0 0 0 0 0
0 0 0 0 0 0 0 0 0 0 0 0 0 0 0 0 0 0 0 0 0 0 0 0 0 0 0 0 0 0 0 0 0 0 0 0 0 0 0 0 0 0 0 0 0 0 0 0 0
0 0 0 0 0 0 0 0 0 0 0 0 0 0 0 0 0 0 0 0 0 0 0 0 0 0 0 0 0 0 0 0 0 0 0 0 0 0 0 0 0 0 0 0 0 0 0 0 0
0 0 0 0 0 0 0 0 0 0 0 0 0 0 0 0 0 0 0 0 0 0 0 0 0 0 0 0 0 0 0 0 0 0 0 0 0 0 0 0 0 0 0 0 0 0 0 0 0
0 0 0 0 0 0 0 0 0 0 0 0 0 0 0 0 0 0 0 0 0 0 0 0 0 0 0 0 0 0 0 0 0 0 0 0 0 0 0 0 0 0 0 0 0 0 0 0 0
0 0 0 0 0 0 0 0 0 0 0 0 0 0 0 0 0 0 0 0 0 0 0 0 0 0 0 0 0 0 0 0 0 0 0 0 0 0 0 0 0 0 0 0 0 0 0 0 0
0 0 0 0 0 0 0 0 0 0 0 0 0 0 0 0 0 0 0 0 0 0 0 0 0 0 0 0 0 0 0 0 0 0 0 0 0 0 0 0 0 0 0 0 0 0 0 0 0
0 0 0 0 0 0 0 0 0 0 0 0 0 0 0 0 0 0 0 0 0 0 0 0 0 0 0 0 0 0 0 0 0 0 0 0 0 0 0 0 0 0 0 0 0 0 0 0 0
0 0 0 0 0 0 0 0 0 0 0 0 0 0 0 0 0 0 0 0 0 0 0 0 0 0 0 0 0 0 0 0 0 0 0 0 0 0 0 0 0 0 0 0 0 0 0 0 0
0 0 0 0 0 0 0 0 0 0 0 0 0 0 0 0 0 0 0 0 0 0 0 0 0 0 0 0 0 0 0 0 0 0 0 0 0 0 0 0 0 0 0 0 0 0 0 0 0
0 0 0 0 0 0 0 0 0 0 0 0 0 0 0 0 0 0 0 0 0 0 0 0 0 0 0 0 0 0 0 0 0 0 0 0 0 0 0 0 0 0 0 0 0 0 0 0 0
0 0 0 0 0 0 0 0 0 0 0 0 0 0 0 0 0 0 0 0 0 0 0 0 0 0 0 0 0 0 0 0 0 0 0 0 0 0 0 0 0 0 0 0 0 0 0 0 0
0 0 0 0 0 0 0 0 0 0 0 0 0 0 0 0 0 0 0 0 0 0 0 0 0 0 0 0 0 0 0 0 0 0 0 0 0 0 0 0 0 0 0 0 0 0 0 0 0
0 0 0 0 0 0 0 0 0 0 0 0 0 0 0 0 0 0 0 0 0 0 0 0 0 0 0 0 0 0 0 0 0 0 0 0 0 0 0 0 0 0 0 0 0 0 0 0 0
Height
5794 5795 5797 5798 5800 5801 5802 5804 5805 5806 5807 5808 5808 5809 5811 5812 5814 5817 5817 5816 5817 5818 5819 5820 5821 5822 5823 5824 5826 5827 5828 5829 5831 5832 5833 5834 5835 5836 5837 5839 5840 5841 5842 5843 5844 5845 5846 5847 5848
5791 5792 5794 5795 5796 5797 5800 5801 5802 5803 5804 5805 5805 5806 5807 5808 5810 5811 5812 5813 5814 5815 5816 5817 5818 5819 5820 5822 5823 5824 5825 5827 5828 5829 5830 5831 5833 5834 5835 5836 5838 5839 5840 5841 5842 5843 5844 5845 5846
5787 5788 5790 5791 5792 5794 5797 5798 5799 5799 5800 5801 5802 5803 5804 5805 5806 5807 5808 5809 5810 5811 5812 5813 5814 5816 5817 5818 5820 5821 5823 5824 5825 5826 5827 5829 5830 5831 5832 5834 5835 5836 5837 5838 5840 5840 5841 5842 5843
5784 5785 5786 5787 5788 5791 5793 5795 5795 5795 5796 5797 5798 5799 5800 5802 5802 5803 5804 5805 5806 5808 5809 5810 5811 5812 5814 5815 5816 5818 5819 5820 5822 5823 5824 5825 5827 5828 5829 5831 5832 5833 5835 5836 5837 5838 5839 5840 5841
5780 5781 5782 5783 5785 5787 5789 5790 5790 5791 5792 5793 5794 5795 5796 5797 5798 5799 5800 5801 5802 5804 5805 5806 5807 5809 5810 5811 5813 5814 5815 5817 5818 5819 5821 5822 5823 5825 5826 5827 5829 5830 5831 5833 5834 5835 5836 5837 5838
5776 5776 5778 5779 5781 5782 5784 5785 5786 5787 5788 5789 5789 5790 5792 5793 5794 5795 5796 5797 5798 5799 5800 5802 5803 5805 5806 5807 5809 5810 5811 5813 5814 5815 5817 5818 5820 5821 5822 5824 5825 5827 5828 5829 5830 5831 5832 5834 5835
5772 5772 5773 5775 5776 5777 5779 5780 5781 5781 5782 5784 5784 5785 5787 5788 5789 5790 5791 5792 5793 5794 5795 5797 5798 5800 5801 5803 5804 5805 5807 5808 5809 5811 5813 5814 5816 5817 5818 5820 5821 5822 5824 5825 5826 5828 5829 5830 5831
5766 5767 5768 5769 5770 5772 5774 5774 5775 5776 5777 5778 5778 5779 5781 5782 5783 5784 5785 5786 5787 5788 5790 5791 5793 5795 5796 5798 5799 5800 5802 5803 5805 5806 5808 5809 5811 5812 5814 5815 5817 5818 5820 5821 5822 5823 5825 5826 5827
5760 5762 5762 5765 5765 5766 5767 5768 5769 5769 5770 5771 5772 5773 5774 5775 5776 5777 5779 5780 5781 5782 5784 5785 5787 5789 5790 5792 5794 5795 5797 5798 5800 5801 5803 5804 5806 5807 5809 5810 5812 5813 5815 5816 5817 5818 5820 5821 5822
5754 5755 5758 5759 5759 5759 5760 5761 5762 5762 5764 5765 5765 5766 5767 5768 5769 5770 5772 5773 5774 5775 5777 5778 5780 5782 5784 5786 5788 5789 5791 5792 5794 5796 5797 5799 5801 5802 5804 5805 5807 5808 5809 5811 5812 5813 5814 5816 5817
5748 5750 5752 5752 5752 5752 5753 5754 5754 5755 5756 5757 5758 5759 5759 5760 5761 5762 5763 5765 5766 5768 5769 5771 5773 5775 5777 5779 5781 5783 5784 5786 5788 5789 5791 5793 5795 5796 5798 5799 5801 5802 5804 5805 5806 5808 5809 5810 5811
5743 5744 5744 5744 5744 5744 5745 5746 5747 5748 5749 5749 5750 5751 5751 5752 5753 5754 5756 5757 5758 5760 5761 5763 5765 5767 5769 5771 5773 5775 5777 5779 5781 5782 5784 5786 5788 5790 5791 5793 5795 5796 5797 5799 5800 5801 5802 5804 5805
5735 5736 5737 5737 5736 5736 5737 5737 5738 5740 5740 5740 5741 5742 5743 5744 5745 5746 5747 5749 5750 5752 5753 5755 5757 5759 5761 5763 5765 5768 5770 5772 5774 5775 5777 5779 5781 5782 5784 5786 5787 5789 5791 5792 5793 5794 5796 5797 5798
5728 5728 5728 5728 5728 5728 5728 5729 5729 5732 5732 5732 5733 5734 5735 5736 5737 5738 5740 5741 5742 5743 5745 5747 5749 5751 5753 5755 5757 5759 5762 5764 5766 5768 5770 5771 5773 5775 5776 5778 5780 5781 5783 5785 5786 5787 5789 5790 5791
5719 5719 5719 5719 5719 5719 5719 5720 5721 5723 5722 5723 5724 5725 5726 5727 5729 5730 5732 5733 5734 5735 5737 5738 5740 5742 5744 5746 5748 5751 5753 5755 5758 5760 5761 5763 5765 5767 5769 5770 5772 5773 5775 5777 5778 5780 5781 5782 5784
5710 5710 5710 5710 5710 5710 5711 5712 5713 5713 5713 5714 5715 5716 5717 5719 5720 5722 5723 5725 5726 5727 5728 5730 5731 5733 5735 5737 5739 5742 5744 5746 5749 5751 5753 5755 5756 5758 5760 5762 5764 5765 5767 5768 5770 5771 5773 5774 5776
5701 5701 5701 5702 5701 5701 5701 5702 5704 5703 5704 5705 5706 5707 5708 5710 5711 5713 5714 5716 5717 5719 5720 5721 5723 5724 5726 5728 5730 5732 5734 5737 5739 5742 5744 5746 5747 5749 5751 5753 5754 5756 5758 5760 5761 5763 5764 5766 5767
5694 5694 5693 5693 5693 5692 5692 5693 5695 5695 5695 5696 5698 5698 5700 5701 5702 5703 5705 5706 5708 5710 5711 5712 5714 5716 5717 5718 5720 5723 5725 5727 5730 5732 5734 5736 5738 5740 5742 5744 5745 5747 5749 5751 5752 5754 5755 5757 5759
5686 5685 5685 5685 5684 5683 5684 5684 5685 5686 5686 5687 5688 5689 5691 5692 5693 5694 5695 5696 5698 5700 5701 5703 5704 5706 5708 5709 5711 5713 5715 5717 5719 5722 5724 5726 5728 5730 5732 5734 5736 5738 5739 5741 5743 5744 5746 5748 5749
5677 5677 5677 5676 5675 5674 5675 5675 5676 5677 5677 5678 5679 5680 5681 5682 5683 5685 5686 5687 5689 5690 5692 5693 5695 5696 5698 5700 5701 5703 5705 5707 5709 5711 5714 5716 5718 5720 5722 5724 5726 5728 5729 5731 5733 5734 5736 5738 5739
5669 5669 5669 5668 5667 5665 5665 5666 5667 5668 5668 5668 5669 5670 5671 5673 5674 5675 5676 5677 5679 5680 5682 5683 5685 5686 5688 5689 5691 5692 5694 5696 5699 5701 5703 5705 5708 5710 5712 5714 5715 5717 5719 5721 5722 5724 5726 5727 5728
5662 5661 5660 5659 5658 5657 5656 5655 5658 5659 5659 5660 5660 5661 5661 5662 5663 5664 5666 5667 5668 5670 5672 5673 5675 5676 5677 5679 5680 5682 5684 5686 5688 5691 5693 5695 5697 5699 5701 5703 5705 5706 5708 5710 5711 5713 5714 5716 5717
5654 5653 5652 5650 5649 5648 5647 5645 5648 5649 5650 5651 5651 5651 5651 5652 5653 5654 5655 5657 5658 5659 5661 5662 5664 5665 5667 5668 5670 5671 5673 5675 5678 5680 5682 5684 5686 5688 5690 5692 5694 5695 5697 5698 5700 5701 5703 5704 5706
5645 5645 5643 5641 5640 5639 5639 5637 5638 5640 5641 5642 5641 5641 5641 5642 5642 5643 5644 5646 5647 5648 5649 5651 5652 5654 5656 5657 5659 5660 5662 5664 5666 5668 5670 5672 5674 5676 5678 5680 5682 5683 5685 5686 5688 5689 5690 5692 5693
5638 5637 5635 5632 5630 5630 5631 5628 5630 5631 5632 5632 5632 5631 5631 5631 5632 5632 5633 5635 5636 5637 5638 5639 5641 5642 5644 5645 5647 5649 5651 5652 5654 5657 5658 5660 5662 5664 5666 5667 5669 5670 5672 5673 5674 5676 5677 5678 5680
5630 5628 5627 5624 5622 5622 5621 5620 5623 5623 5622 5621 5621 5620 5620 5620 5620 5621 5622 5623 5624 5625 5626 5628 5629 5630 5632 5633 5635 5637 5639 5640 5642 5644 5646 5648 5650 5651 5653 5654 5656 5658 5659 5660 5661 5663 5664 5665 5667
5621 5620 5619 5617 5613 5612 5612 5612 5614 5613 5612 5611 5610 5609 5609 5608 5608 5609 5610 5611 5612 5613 5614 5616 5617 5618 5620 5621 5623 5624 5626 5628 5629 5631 5633 5635 5636 5638 5640 5641 5643 5644 5645 5646 5648 5649 5650 5651 5653
5613 5612 5610 5607 5604 5603 5603 5603 5605 5603 5602 5601 5600 5599 5598 5598 5598 5598 5599 5599 5600 5601 5602 5603 5604 5606 5607 5609 5610 5611 5613 5615 5616 5618 5619 5621 5623 5625 5626 5628 5629 5630 5631 5633 5634 5635 5636 5637 5638
5605 5604 5601 5599 5597 5595 5593 5597 5596 5594 5592 5591 5590 5589 5588 5587 5587 5587 5587 5588 5589 5590 5590 5591 5592 5593 5595 5596 5597 5598 5599 5601 5602 5604 5605 5607 5609 5611 5612 5614 5615 5616 5617 5618 5619 5621 5622 5623 5624
5596 5595 5593 5592 5589 5586 5584 5589 5587 5585 5582 5581 5580 5579 5578 5577 5577 5577 5577 5577 5578 5578 5579 5579 5580 5581 5582 5583 5584 5585 5587 5588 5589 5590 5592 5593 5595 5596 5598 5599 5601 5602 5603 5604 5605 5606 5607 5608 5609
Wind_Speed
18 18 18 17 18 18 16 14 15 16 16 15 15 16 16 17 16 16 16 16 16 16 16 15 15 15 15 14 14 14 14 13 13 13 13 13 13 13 12 12 11 11 10 10 10 10 9 9 9
19 19 19 19 19 18 16 15 15 16 16 17 17 17 18 18 18 17 17 17 18 17 17 17 16 15 15 15 15 15 14 14 14 14 14 14 14 14 14 14 13 13 12 12 12 11 11 11 10
19 19 20 20 20 19 17 16 16 17 18 18 19 19 19 19 19 19 19 18 19 19 19 19 18 17 16 16 16 16 15 15 15 15 14 14 15 15 16 15 15 14 14 14 13 13 12 12 12
20 20 21 21 21 20 18 17 18 18 19 20 20 21 21 21 21 21 20 20 20 21 20 20 19 19 18 18 17 17 17 17 17 16 16 16 16 16 17 17 16 16 16 15 15 14 14 14 14
20 21 22 22 21 21 19 19 20 20 20 21 22 22 22 22 22 22 22 22 22 22 21 21 21 21 20 20 19 18 18 18 19 18 18 18 17 17 18 18 17 17 17 17 16 16 16 15 15
22 22 23 23 22 22 21 21 21 21 22 23 23 24 24 24 24 23 24 24 23 23 23 22 22 22 22 22 21 21 20 20 20 20 20 20 19 18 18 18 19 18 18 18 18 18 18 18 17
23 24 24 23 24 24 23 23 23 23 24 24 25 25 26 25 26 26 25 25 25 25 24 24 23 24 24 23 23 23 22 22 22 21 21 21 22 21 20 20 20 20 20 20 20 20 19 19 19
24 25 25 24 25 25 24 25 26 26 26 26 27 27 27 27 27 28 28 27 27 27 27 26 26 25 26 26 25 25 24 24 24 23 23 23 23 23 23 22 21 21 21 21 22 22 22 21 21
25 26 25 25 26 27 27 27 27 28 28 28 29 29 30 30 30 30 30 30 29 29 29 28 28 28 27 27 27 27 26 26 26 25 25 25 25 24 24 24 24 23 23 23 23 23 23 23 23
26 27 26 26 27 28 29 28 29 30 30 30 31 31 31 31 31 32 32 31 31 31 30 30 30 29 29 29 29 28 28 28 28 27 27 27 27 26 26 26 26 25 25 25 25 25 25 25 25
27 27 27 27 28 28 29 29 30 30 31 31 32 31 31 31 32 32 32 32 32 32 33 32 31 31 31 31 30 30 30 30 30 30 30 29 29 28 28 27 27 27 26 26 26 27 26 26 27
28 27 28 29 29 30 30 30 30 30 30 31 31 31 32 32 32 33 32 32 32 32 33 33 33 33 33 32 32 32 31 31 31 32 32 32 31 30 29 29 29 29 29 28 28 28 28 28 28
29 29 29 30 31 31 31 31 31 31 31 31 31 32 32 32 32 32 32 33 33 33 33 34 34 33 34 34 34 34 33 33 33 32 33 33 33 33 32 32 31 31 31 30 30 30 30 30 30
30 30 31 31 32 32 32 32 33 32 32 33 33 33 33 33 33 33 33 33 33 34 34 34 35 35 35 35 36 35 35 35 35 34 34 34 34 35 34 34 33 33 33 33 32 32 32 32 32
31 31 32 33 33 33 34 33 34 33 34 34 35 35 35 34 34 34 34 34 34 34 34 35 34 35 36 37 36 37 37 37 36 36 36 35 35 35 36 35 35 35 34 34 34 34 34 33 34
32 33 33 33 34 34 35 35 34 34 35 35 35 36 36 35 35 35 35 35 35 35 35 35 36 36 36 37 38 38 38 39 38 38 38 37 37 37 37 37 37 36 36 36 36 36 35 35 34
32 33 34 34 34 34 35 35 34 34 35 35 35 36 37 37 36 36 36 36 36 36 36 36 36 36 37 38 39 39 39 39 40 39 39 39 39 38 38 39 39 38 38 38 37 38 37 37 37
32 33 33 33 34 34 35 35 34 34 35 35 35 36 37 37 38 38 37 37 37 37 37 38 38 37 37 38 39 40 40 40 41 40 41 40 40 40 40 41 41 40 39 39 39 39 39 38 38
33 33 33 33 33 35 35 35 35 35 35 35 36 37 38 38 39 39 39 39 39 38 38 39 39 39 39 38 39 41 41 41 41 42 42 42 41 41 41 42 42 41 41 41 41 41 40 40 41
33 34 33 33 34 35 35 36 35 35 36 36 36 37 38 38 39 40 40 41 40 40 40 40 40 40 40 40 40 40 42 42 42 42 43 43 43 43 42 42 42 42 42 42 43 43 43 43 43
33 33 33 34 34 36 36 36 35 35 36 36 37 37 38 39 39 40 41 41 41 41 41 41 41 41 41 42 42 42 42 43 43 43 44 44 45 44 44 43 43 44 44 44 44 44 44 44 44
33 33 34 34 35 36 37 38 35 35 36 36 36 37 38 39 40 41 41 42 42 42 42 42 42 43 43 42 43 43 43 43 43 44 45 45 46 45 45 45 45 45 45 45 46 46 46 46 45
33 33 33 34 35 36 36 39 37 36 36 36 37 37 38 39 40 41 42 42 43 43 43 43 43 44 43 43 43 43 44 44 45 45 46 46 46 46 47 47 46 46 46 46 47 48 47 47 47
32 32 33 34 35 36 36 38 38 37 36 35 36 37 38 39 40 41 42 43 43 44 44 44 44 44 44 44 45 45 45 45 46 46 47 48 48 48 48 48 48 48 48 49 49 49 50 50 49
32 33 34 35 36 37 37 38 38 37 36 36 36 37 38 39 40 41 42 42 43 44 44 45 45 45 46 46 46 46 46 46 47 48 48 48 49 49 49 49 48 49 50 51 51 51 51 51 50
33 33 34 36 37 38 37 38 36 37 36 36 36 37 38 39 40 41 42 42 43 44 45 45 45 46 46 47 47 47 47 48 48 49 49 49 49 50 50 50 50 50 51 52 52 52 52 52 52
32 33 34 36 38 38 38 38 36 37 37 37 37 37 38 39 39 41 42 42 43 43 44 45 45 46 47 47 48 48 49 49 50 50 51 51 50 50 50 51 52 51 52 52 53 53 53 52 52
32 32 33 34 36 38 39 38 36 36 37 37 37 37 37 38 38 39 41 41 42 43 44 44 45 46 47 48 48 49 49 50 51 51 52 52 52 52 52 52 52 52 53 53 53 54 54 54 53
32 32 33 34 36 37 39 38 36 36 37 37 37 36 36 36 37 38 40 41 41 41 42 43 44 45 46 46 47 47 48 50 50 51 52 53 53 53 53 53 53 53 54 53 54 55 55 55 54
32 33 33 34 35 37 39 38 35 36 37 37 36 36 36 36 36 37 38 39 40 40 41 42 43 44 45 45 46 46 47 47 48 49 50 52 53 54 54 54 53 54 54 54 55 55 55 55 55
Wind_Direction
248 249 250 250 252 252 252 251 249 247 245 244 245 245 245 246 249 250 248 247 246 245 244 243 244 244 243 241 240 241 240 241 241 241 240 238 237 238 239 241 242 244 245 246 247 249 252 253 255
248 250 251 252 253 254 254 253 251 250 248 246 245 246 245 245 248 251 250 249 248 248 247 246 246 245 244 243 243 243 242 242 241 241 244 243 241 240 240 243 244 245 246 247 246 248 250 251 253
249 250 251 253 255 257 256 255 253 251 249 248 247 247 247 247 248 249 250 250 249 249 249 248 247 246 245 244 245 245 244 244 244 245 246 246 243 241 242 245 245 247 248 247 246 247 249 250 251
249 250 250 252 255 257 258 255 254 253 253 251 249 249 249 248 248 249 250 250 250 250 250 249 247 245 245 245 246 246 244 245 247 248 249 249 247 243 244 245 246 248 249 248 247 248 248 250 252
251 252 252 253 254 255 257 257 255 254 254 254 252 251 250 249 249 250 251 250 249 250 250 249 248 246 246 245 246 246 245 246 246 248 249 249 249 247 246 246 247 249 249 248 249 249 250 250 252
253 255 255 255 256 257 257 257 256 255 255 254 253 251 251 251 250 250 251 251 249 249 250 250 249 247 247 247 247 247 247 246 246 247 248 249 249 249 250 251 250 250 250 250 251 251 252 251 251
254 256 258 258 257 257 258 257 255 255 256 256 255 254 252 252 252 252 251 251 250 249 250 250 250 249 248 248 248 247 247 247 246 246 247 250 251 250 251 253 253 252 251 251 252 252 252 252 252
256 257 258 259 259 258 259 258 257 256 256 256 255 255 255 254 254 254 253 252 250 250 250 250 251 250 249 249 248 248 248 248 247 246 247 249 251 252 252 252 253 254 253 252 252 252 252 253 253
259 259 259 261 261 260 260 260 258 257 257 256 256 256 256 255 254 254 254 253 251 250 251 251 251 251 250 249 248 248 248 248 248 248 248 249 251 253 254 253 253 254 255 254 253 253 252 252 252
261 261 262 262 264 264 263 262 260 259 258 257 257 258 257 256 255 254 253 252 251 251 251 251 251 251 250 249 248 248 248 249 249 249 250 251 252 253 254 254 253 254 255 255 254 254 253 253 253
262 263 263 263 264 265 265 264 262 259 258 259 258 257 257 257 256 255 254 253 252 250 250 250 250 251 250 250 249 249 249 249 249 249 250 251 252 252 253 254 254 253 254 254 254 253 255 255 254
263 263 264 265 265 265 266 265 263 261 259 259 258 256 257 257 256 255 255 255 254 253 251 250 251 251 251 250 250 250 250 250 251 251 250 250 251 253 254 254 254 254 254 254 255 256 256 257 255
264 264 264 264 264 265 265 264 263 262 261 259 257 257 257 256 256 254 253 254 254 254 254 253 251 252 251 250 250 249 249 250 251 252 252 252 252 252 253 254 255 255 255 254 254 256 257 257 256
265 265 264 264 265 265 266 265 263 262 261 259 258 258 257 255 255 254 255 255 255 254 254 253 253 252 251 250 250 249 250 250 251 252 253 253 253 254 253 253 254 256 256 255 255 255 256 256 258
267 266 265 265 266 266 266 265 264 262 261 259 259 257 256 254 253 254 255 255 255 254 253 252 253 252 251 251 251 249 249 250 252 253 255 255 255 255 254 254 255 256 256 256 255 255 255 256 258
267 267 266 266 267 267 265 265 265 263 261 260 260 258 255 253 253 254 255 255 255 254 253 252 253 253 251 251 250 250 250 250 252 253 254 256 256 256 256 255 256 257 256 256 255 255 255 256 257
267 268 268 268 268 267 266 265 264 263 261 260 259 258 256 255 255 254 254 255 254 255 254 254 253 254 253 251 251 250 251 251 252 252 254 255 257 257 257 257 257 257 257 257 256 255 255 256 258
271 272 271 270 269 268 267 266 264 263 262 260 259 258 256 256 256 255 254 255 254 255 255 255 254 253 253 253 252 251 251 251 252 251 253 255 256 258 258 258 258 258 258 258 257 257 256 256 257
274 273 273 272 271 269 268 267 265 264 262 261 260 259 257 257 257 256 255 254 254 254 254 254 254 253 253 254 254 253 252 251 251 251 253 255 256 257 257 258 258 258 258 257 257 258 257 258 257
273 274 274 273 272 271 270 268 267 265 264 263 261 260 258 257 257 257 257 255 255 255 255 254 254 254 254 253 254 254 253 252 252 252 254 255 255 255 257 257 257 258 257 258 258 258 258 258 258
275 275 275 275 275 273 272 269 268 266 266 264 263 262 260 258 258 258 257 256 255 256 255 255 255 254 254 254 253 253 254 253 252 252 253 254 255 255 256 257 257 258 258 258 259 259 259 260 259
276 276 276 276 276 275 274 273 269 268 267 266 265 264 262 259 258 258 257 256 255 255 256 256 256 256 255 254 253 253 253 253 253 254 254 254 255 255 256 257 258 258 258 258 259 259 261 261 261
278 277 278 278 278 277 276 275 272 271 270 268 267 266 264 261 259 258 258 257 256 256 256 257 256 256 255 254 254 254 253 253 253 254 254 255 255 255 256 257 258 258 258 258 258 259 259 259 260
278 278 278 279 279 277 277 276 274 273 272 270 269 268 266 264 261 259 258 258 256 257 257 257 257 256 255 255 255 255 254 253 253 254 255 255 255 256 256 257 257 257 258 258 259 258 258 259 260
277 277 279 280 280 279 279 278 277 276 275 273 271 270 268 266 263 261 260 259 258 258 258 257 257 257 256 256 256 255 255 254 254 254 254 255 255 255 256 256 257 257 258 258 258 259 260 259 261
278 278 279 281 281 281 280 280 280 279 278 277 275 272 270 267 264 263 261 260 259 258 258 257 257 257 256 256 256 256 256 255 255 255 254 255 256 256 255 256 257 257 258 259 259 260 260 260 260
279 278 280 281 281 282 282 282 282 282 280 280 278 276 273 269 266 264 262 261 260 259 258 258 258 257 256 256 256 257 256 256 256 256 255 255 255 256 256 257 258 258 258 258 258 259 259 260 261
280 281 281 281 283 284 283 283 284 283 282 281 280 279 276 272 268 265 263 261 261 260 259 258 258 258 257 256 255 256 257 256 256 256 256 255 255 255 256 257 257 258 258 258 259 259 260 260 260
280 281 280 281 282 284 285 285 286 284 284 283 282 280 277 274 270 266 264 263 262 261 261 260 259 259 258 257 257 257 257 256 256 256 256 256 256 255 256 256 257 258 258 259 259 259 260 260 261
279 280 280 282 283 283 284 285 286 286 285 285 283 282 278 275 272 269 266 265 265 263 262 262 261 260 260 259 259 259 259 258 257 257 257 258 258 257 257 258 258 259 259 259 260 260 260 261 262